TimeCDT,TemperatureF,Dew PointF,Humidity,Sea Level PressureIn,VisibilityMPH,Wind Direction,Wind SpeedMPH,Gust SpeedMPH,PrecipitationIn,Events,Conditions,WindDirDegrees,DateUTC
12:15 AM,54.7,46.6,74,30.01,10.0,North,3.5,-,N/A,,Overcast,360,2013-05-06 05:15:00
12:35 AM,54.5,46.4,74,30.01,10.0,Calm,Calm,-,N/A,,Overcast,0,2013-05-06 05:35:00
12:55 AM,54.5,46.4,74,30.00,10.0,Calm,Calm,-,N/A,,Overcast,0,2013-05-06 05:55:00
1:15 AM,55.4,46.4,72,29.99,10.0,Calm,Calm,-,N/A,,Overcast,0,2013-05-06 06:15:00
1:35 AM,53.2,47.1,80,29.99,10.0,NNE,4.6,-,N/A,,Overcast,30,2013-05-06 06:35:00
1:55 AM,54.5,45.3,71,29.98,10.0,NNE,3.5,-,N/A,,Overcast,30,2013-05-06 06:55:00
2:15 AM,51.1,45.7,82,29.98,10.0,NE,5.8,-,N/A,,Overcast,40,2013-05-06 07:15:00
2:35 AM,51.8,45.0,77,29.97,10.0,North,5.8,-,N/A,,Mostly Cloudy,360,2013-05-06 07:35:00
2:55 AM,52.7,44.8,74,29.96,10.0,North,5.8,-,N/A,,Mostly Cloudy,350,2013-05-06 07:55:00
3:15 AM,52.9,44.2,72,29.96,10.0,North,4.6,-,N/A,,Clear,350,2013-05-06 08:15:00
3:35 AM,53.6,44.1,70,29.96,10.0,North,5.8,-,N/A,,Clear,360,2013-05-06 08:35:00
3:55 AM,54.0,44.2,70,29.96,10.0,North,5.8,-,N/A,,Clear,350,2013-05-06 08:55:00
4:15 AM,52.9,43.5,71,29.96,10.0,North,6.9,-,N/A,,Clear,10,2013-05-06 09:15:00
4:35 AM,53.6,43.0,67,29.96,10.0,North,6.9,-,N/A,,Scattered Clouds,360,2013-05-06 09:35:00
4:55 AM,53.8,42.8,66,29.96,10.0,North,8.1,-,N/A,,Mostly Cloudy,10,2013-05-06 09:55:00
5:15 AM,54.1,42.4,65,29.96,10.0,North,10.4,16.1,N/A,,Overcast,10,2013-05-06 10:15:00
5:35 AM,54.0,42.8,66,29.97,10.0,NNE,6.9,-,N/A,,Overcast,30,2013-05-06 10:35:00
5:55 AM,52.7,43.7,71,29.99,10.0,NE,8.1,-,N/A,,Overcast,40,2013-05-06 10:55:00
6:15 AM,52.9,43.7,71,30.00,10.0,NE,8.1,-,N/A,,Mostly Cloudy,40,2013-05-06 11:15:00
6:35 AM,53.4,43.5,69,30.00,10.0,NNE,6.9,-,N/A,,Scattered Clouds,20,2013-05-06 11:35:00
6:55 AM,54.0,43.3,67,30.00,10.0,NE,8.1,-,N/A,,Clear,50,2013-05-06 11:55:00
7:15 AM,54.7,43.7,66,30.01,10.0,NNE,5.8,-,N/A,,Mostly Cloudy,30,2013-05-06 12:15:00
7:35 AM,55.6,42.8,62,30.01,10.0,NNE,6.9,-,N/A,,Overcast,30,2013-05-06 12:35:00
7:55 AM,56.7,43.0,60,30.01,10.0,NNE,6.9,-,N/A,,Overcast,30,2013-05-06 12:55:00
8:15 AM,57.6,43.0,58,30.01,10.0,NNE,8.1,-,N/A,,Overcast,30,2013-05-06 13:15:00
8:35 AM,59.0,43.7,57,30.02,10.0,NE,6.9,-,N/A,,Overcast,40,2013-05-06 13:35:00
8:55 AM,60.6,43.7,54,30.02,10.0,NE,10.4,-,N/A,,Overcast,50,2013-05-06 13:55:00
9:15 AM,63.0,44.4,51,30.02,10.0,NE,8.1,-,N/A,,Mostly Cloudy,50,2013-05-06 14:15:00
9:35 AM,64.0,45.3,51,30.02,10.0,NNE,5.8,-,N/A,,Overcast,30,2013-05-06 14:35:00
9:55 AM,65.1,44.8,48,30.02,10.0,NE,6.9,-,N/A,,Overcast,50,2013-05-06 14:55:00
10:15 AM,66.0,45.3,47,30.02,10.0,NE,5.8,-,N/A,,Overcast,40,2013-05-06 15:15:00
10:35 AM,66.9,46.0,47,30.01,10.0,North,9.2,-,N/A,,Overcast,10,2013-05-06 15:35:00
10:55 AM,68.0,45.0,43,30.01,10.0,North,8.1,-,N/A,,Overcast,10,2013-05-06 15:55:00
11:15 AM,69.4,46.8,44,30.01,10.0,NE,8.1,-,N/A,,Mostly Cloudy,50,2013-05-06 16:15:00
11:35 AM,69.8,46.9,44,30.00,10.0,North,8.1,-,N/A,,Mostly Cloudy,10,2013-05-06 16:35:00
11:55 AM,70.3,48.4,46,29.99,10.0,NNE,9.2,-,N/A,,Mostly Cloudy,30,2013-05-06 16:55:00
12:15 PM,71.2,48.6,45,29.98,10.0,North,9.2,16.1,N/A,,Scattered Clouds,360,2013-05-06 17:15:00
12:35 PM,71.8,47.7,42,29.97,10.0,NE,11.5,18.4,N/A,,Scattered Clouds,40,2013-05-06 17:35:00
12:55 PM,72.9,47.7,41,29.97,10.0,NNE,5.8,16.1,N/A,,Clear,20,2013-05-06 17:55:00
1:15 PM,73.0,45.9,38,29.97,10.0,NNE,10.4,20.7,N/A,,Clear,30,2013-05-06 18:15:00
1:35 PM,73.8,46.4,38,29.97,10.0,NE,11.5,17.3,N/A,,Scattered Clouds,50,2013-05-06 18:35:00
1:55 PM,74.1,46.0,37,29.96,10.0,NNE,12.7,19.6,N/A,,Scattered Clouds,30,2013-05-06 18:55:00
2:15 PM,72.7,48.0,42,29.97,10.0,NE,6.9,16.1,N/A,,Mostly Cloudy,50,2013-05-06 19:15:00
2:35 PM,72.3,45.9,39,29.96,10.0,NE,13.8,19.6,N/A,,Mostly Cloudy,40,2013-05-06 19:35:00
2:55 PM,74.3,49.1,41,29.96,10.0,NNE,12.7,18.4,N/A,,Scattered Clouds,20,2013-05-06 19:55:00
3:15 PM,71.8,48.2,43,29.95,10.0,NNE,10.4,-,N/A,,Mostly Cloudy,30,2013-05-06 20:15:00
3:35 PM,72.7,47.5,41,29.95,10.0,NE,13.8,21.9,N/A,,Mostly Cloudy,40,2013-05-06 20:35:00
3:55 PM,72.3,47.5,41,29.95,10.0,NE,9.2,16.1,N/A,,Overcast,40,2013-05-06 20:55:00
4:15 PM,72.9,46.6,39,29.95,10.0,NNE,10.4,16.1,N/A,,Scattered Clouds,20,2013-05-06 21:15:00
4:35 PM,72.9,47.3,40,29.95,10.0,NE,12.7,18.4,N/A,,Mostly Cloudy,40,2013-05-06 21:35:00
4:55 PM,71.1,48.4,44,29.95,10.0,NE,11.5,-,N/A,,Overcast,40,2013-05-06 21:55:00
5:15 PM,72.9,46.2,39,29.95,10.0,NNE,11.5,18.4,N/A,,Overcast,30,2013-05-06 22:15:00
5:35 PM,71.6,44.6,38,29.95,10.0,NNE,10.4,-,N/A,,Overcast,20,2013-05-06 22:35:00
5:55 PM,70.7,44.2,39,29.95,10.0,NNE,10.4,-,N/A,,Overcast,20,2013-05-06 22:55:00
6:15 PM,69.1,41.4,37,29.96,10.0,North,12.7,17.3,N/A,,Overcast,10,2013-05-06 23:15:00
6:35 PM,67.3,41.0,38,29.97,10.0,NNE,10.4,-,N/A,,Overcast,20,2013-05-06 23:35:00
6:55 PM,65.5,38.3,37,29.97,10.0,NE,11.5,-,N/A,,Overcast,40,2013-05-06 23:55:00
7:15 PM,64.4,38.1,38,29.98,10.0,NNE,9.2,-,N/A,,Overcast,30,2013-05-07 00:15:00
7:35 PM,63.3,39.4,41,29.99,10.0,NE,9.2,-,N/A,,Overcast,40,2013-05-07 00:35:00
7:55 PM,61.9,36.7,39,29.99,10.0,NNE,9.2,-,N/A,,Overcast,30,2013-05-07 00:55:00
8:15 PM,60.8,36.3,40,30.00,10.0,NNE,11.5,18.4,N/A,,Overcast,30,2013-05-07 01:15:00
8:35 PM,59.2,38.3,46,30.01,10.0,NE,6.9,-,N/A,,Overcast,40,2013-05-07 01:35:00
8:55 PM,58.1,39.4,50,30.02,10.0,NE,5.8,-,N/A,,Overcast,50,2013-05-07 01:55:00
9:15 PM,57.4,40.1,53,30.02,10.0,NNE,4.6,-,N/A,,Overcast,30,2013-05-07 02:15:00
9:35 PM,56.7,40.5,55,30.03,10.0,NNE,4.6,-,N/A,,Overcast,20,2013-05-07 02:35:00
9:55 PM,55.9,40.3,56,30.03,10.0,NNE,5.8,-,N/A,,Overcast,20,2013-05-07 02:55:00
10:15 PM,54.5,40.1,58,30.02,10.0,NNE,3.5,-,N/A,,Overcast,20,2013-05-07 03:15:00
10:35 PM,53.2,39.9,61,30.02,10.0,NNE,4.6,-,N/A,,Scattered Clouds,20,2013-05-07 03:35:00
10:55 PM,52.2,39.6,62,30.02,10.0,Calm,Calm,-,N/A,,Clear,0,2013-05-07 03:55:00
11:15 PM,51.8,39.6,63,30.02,10.0,Calm,Calm,-,N/A,,Clear,0,2013-05-07 04:15:00
11:35 PM,50.9,39.4,65,30.02,10.0,Calm,Calm,-,N/A,,Clear,0,2013-05-07 04:35:00
11:55 PM,50.9,39.2,64,30.02,10.0,Calm,Calm,-,N/A,,Clear,0,2013-05-07 04:55:00